STARLINK-2345 (47886 NORAD) Tracking and Keplerian Element Data

This shows tracking and keplerian element data for the satellite.

Feedback or suggestion? Click here.




ElementValue
Catalog47886
NameSTARLINK-2345
Epoch Orbit196
Epoch Day173.91668981
Epoch Year2021
RAAN82.0892
Inclination53.0472
Eccentricity0.0001425
Argument of Perigee75.2516
Mean Anonmoly98.0939
Mean Motion15.24374278
Decay Rate-0.01060438
L11 47886U 21021AC 21173.91668981 -.01060438 00000-0 -46636-1 0 9991
L22 47886 53.0472 82.0892 0001425 75.2516 98.0939 15.24374278 1960

Live tracking and technical data element details for STARLINK-2345 (NORAD 47886). STARLINK-2345 can be tracked NOW for your location showing map with azimuth and elevation plus other details from your city location.

Track the satellite on the map from your city or location and see movement details for azimuth, elevation, latitude, longitude, range, height, and movement on the map or in text.







IsCatalogInMostPopularTable: catalog: 47886, numindb: 46
Update: records affected: 1



GetName: 47886 STARLINK-2345

Hit Count: updated at: Thu, 24 Jun 2021 02:50:05 GMT